Theta_e
309 309 309 309 309 309 309 309 309 309 309 309 309 309 309 309 309 309 309 309 310 310 311 311 311 311 311 311 312 312 313 314 314 314 314 314 314 314 315 314 313 313 313 314 313 313 313 313 313 313 314 314 314 316 316 319 317 318 327 324 318 321 320 320 325 317 314 319 315 313 313 313 315 314 313 314 314 314 314 314 314 315 315 315 314 314 314 314
310 310 309 309 309 309 309 309 309 309 309 309 309 309 309 309 309 309 310 310 310 310 311 311 311 311 311 312 312 313 313 314 314 314 314 314 314 314 314 313 314 314 314 314 313 313 313 313 313 314 315 314 315 316 316 318 316 321 325 317 322 330 320 315 318 314 313 315 313 313 313 312 313 313 313 314 313 313 313 314 314 315 315 315 314 314 314 314
310 310 310 309 310 309 309 309 310 309 309 309 309 309 309 310 310 310 310 310 310 310 311 311 311 311 311 312 313 314 313 314 314 314 314 313 314 314 314 314 315 315 314 314 314 314 313 313 314 314 315 314 315 316 316 318 317 317 317 321 331 324 313 312 313 313 314 314 312 312 312 312 313 313 313 313 312 313 314 314 314 314 315 315 315 314 314 314
311 310 310 310 310 309 309 309 309 309 309 309 309 309 309 310 310 310 310 310 310 311 311 311 311 311 312 312 313 313 313 315 315 313 314 314 314 314 314 315 315 315 314 314 314 314 313 313 315 314 314 314 314 316 316 317 317 315 317 326 326 312 312 316 314 315 314 313 313 312 312 313 314 314 313 313 313 314 314 314 314 314 314 314 315 314 314 315
312 312 310 310 310 309 309 309 309 309 309 309 309 309 309 310 309 310 310 310 310 311 311 311 311 311 312 312 312 313 313 316 316 313 314 314 314 314 314 314 315 315 314 314 314 313 313 313 314 314 315 315 314 315 315 315 316 316 318 320 316 310 315 317 314 316 314 313 313 312 313 314 314 313 313 313 313 314 314 314 314 313 313 314 314 314 315 315
313 312 311 311 310 309 309 309 309 309 309 309 309 309 309 310 310 310 310 310 311 311 311 311 311 311 311 312 312 313 314 315 315 313 314 314 314 314 314 314 315 315 314 313 313 313 313 314 314 314 314 313 313 314 313 315 315 317 318 314 313 313 314 316 315 315 314 313 313 312 313 313 312 312 313 312 312 314 314 313 313 313 313 313 314 314 315 315
313 313 312 311 310 310 309 309 309 309 309 309 309 309 309 310 310 310 310 311 311 311 311 311 311 311 311 312 312 314 315 315 314 314 315 314 314 315 315 315 315 315 314 313 313 313 313 313 314 313 313 312 312 312 312 314 314 318 319 314 314 314 313 314 314 313 313 312 312 312 312 311 312 313 312 312 314 314 313 313 312 313 313 313 314 314 314 315
312 312 312 311 311 310 309 309 309 309 309 309 309 309 309 310 310 310 310 310 310 310 310 311 311 311 312 313 314 315 315 315 315 315 315 315 315 316 316 316 315 315 314 313 313 313 313 313 314 313 313 312 311 312 311 312 313 317 319 314 313 313 313 313 312 313 313 312 313 312 310 311 312 312 310 313 316 314 312 313 312 313 313 314 314 314 314 314
312 312 312 312 311 310 309 309 309 309 309 309 309 309 310 309 309 310 310 310 310 310 311 311 312 312 313 314 315 315 315 315 315 317 317 317 317 316 316 316 316 316 314 314 314 314 314 313 314 313 312 312 312 311 311 313 314 314 314 313 312 312 312 313 313 313 313 312 312 311 311 311 311 311 312 315 315 312 312 313 313 313 314 315 315 314 314 313
311 312 312 312 311 310 309 309 309 309 308 309 309 309 309 309 310 310 310 310 310 311 311 312 313 313 315 315 315 315 315 316 317 318 318 318 318 317 317 317 316 316 314 314 314 314 315 314 313 313 313 312 312 311 311 313 314 312 311 311 311 312 312 312 313 313 312 312 311 312 312 311 310 312 315 315 312 312 313 313 313 314 314 314 314 314 314 313
311 311 311 311 311 310 309 308 308 308 308 309 309 309 309 309 310 310 310 311 311 312 313 314 315 315 315 315 313 314 315 317 317 318 318 318 318 317 317 317 316 316 314 314 314 315 315 315 313 313 314 313 312 312 311 312 312 311 311 312 312 311 312 313 313 312 312 312 312 311 311 310 309 312 316 313 311 312 312 313 313 313 313 313 313 313 313 313
310 310 310 310 310 309 309 308 308 308 308 308 309 309 309 310 310 310 311 312 313 314 315 316 316 315 315 314 313 314 315 316 316 316 316 316 315 315 316 317 317 315 314 314 315 316 316 315 313 314 314 313 313 312 312 312 312 312 311 314 314 313 314 313 311 310 311 313 312 310 313 317 315 314 316 312 311 312 311 312 312 312 312 312 312 312 312 312
309 309 309 309 309 308 308 308 308 308 308 309 309 309 310 310 311 312 313 315 316 316 316 315 314 314 314 314 315 316 316 315 316 315 315 314 313 314 315 316 315 314 314 315 315 315 315 315 313 314 314 313 313 313 313 311 311 313 311 312 315 316 318 313 308 310 311 312 312 311 317 326 325 316 313 312 311 312 312 311 311 312 312 311 312 311 311 311
308 308 308 308 307 307 307 307 308 308 309 309 309 310 311 312 314 315 316 316 316 314 314 313 313 314 315 316 316 316 316 316 316 315 314 314 314 314 315 315 315 314 315 315 315 315 315 315 313 314 314 314 313 312 314 313 313 315 311 315 318 315 323 320 308 310 314 312 311 312 317 324 325 315 310 311 311 312 312 311 311 311 311 311 311 310 310 310
306 307 307 307 307 307 307 308 308 309 309 310 311 313 314 315 316 316 315 314 313 313 313 313 315 316 316 315 316 316 316 316 316 316 315 315 314 314 314 314 315 314 315 314 315 315 315 315 314 314 314 313 314 315 319 320 323 321 313 322 323 315 323 323 309 309 314 312 309 312 318 320 319 313 308 309 311 313 312 310 310 310 310 309 309 309 309 309
306 306 306 307 307 307 308 308 309 310 311 313 314 316 316 316 315 314 313 312 312 313 314 316 317 316 316 315 316 316 316 316 316 316 315 315 314 314 314 314 314 314 314 314 315 315 315 315 314 314 313 312 317 324 326 322 325 324 316 320 324 317 319 319 312 308 309 311 310 311 317 318 317 312 309 310 311 312 311 309 309 308 308 308 308 308 308 308
306 306 306 307 307 308 309 310 311 313 314 316 317 316 315 313 312 312 313 313 315 317 317 318 318 316 317 316 316 316 316 317 317 316 316 315 315 314 314 314 314 314 314 315 315 314 314 314 313 313 313 311 315 323 325 320 323 325 317 315 320 318 315 318 318 311 307 312 313 312 314 315 315 312 309 310 310 311 310 307 307 306 306 306 306 307 307 307
307 307 307 308 308 309 310 312 314 315 316 316 315 313 312 312 313 314 316 317 318 319 319 318 317 318 319 317 316 316 317 316 317 317 316 315 315 314 315 314 314 315 314 314 313 314 314 312 313 316 315 311 313 318 320 321 324 326 322 318 319 318 315 317 319 313 311 314 315 315 315 314 315 312 308 309 309 309 307 305 305 305 304 305 305 305 305 306
308 308 308 309 309 311 313 314 315 316 316 314 312 312 312 314 316 317 318 319 319 319 320 319 317 319 320 317 316 316 316 316 316 317 317 316 315 314 315 314 315 314 313 314 314 312 312 312 313 317 317 314 314 315 318 319 321 323 322 319 321 320 318 317 317 312 310 314 315 314 314 315 316 313 308 307 307 306 305 304 304 303 303 303 304 304 304 304
309 309 310 310 311 312 314 315 315 315 314 313 312 314 316 317 319 319 318 318 318 318 319 319 318 318 318 317 317 316 316 316 317 318 318 317 315 315 314 313 314 313 314 318 318 311 311 315 316 318 318 316 315 314 315 315 315 316 315 316 318 318 318 316 315 312 308 312 318 316 315 316 315 314 307 304 306 305 303 303 302 302 302 302 302 302 303 303
311 311 311 311 312 313 315 315 315 314 313 313 314 317 319 319 321 321 319 319 319 318 319 319 318 318 318 318 318 317 317 317 318 318 318 317 315 315 314 313 314 316 314 314 314 310 311 316 319 320 318 315 314 313 312 312 312 313 313 315 316 316 316 314 313 314 310 311 319 317 315 316 316 314 306 303 305 304 302 302 301 301 301 301 301 301 301 302
312 313 313 313 313 314 315 314 314 313 313 314 316 318 320 320 320 320 319 319 319 319 320 319 319 319 319 318 318 318 318 319 319 318 318 317 316 315 314 315 318 320 314 311 314 314 314 317 318 317 314 311 312 312 311 312 312 312 312 313 314 315 315 317 316 315 312 312 319 319 315 316 315 309 305 302 303 302 301 302 301 301 300 300 301 301 301 302
314 314 314 313 314 315 315 315 315 315 314 316 318 319 320 321 320 320 320 320 321 320 319 320 320 320 320 320 319 319 318 319 320 319 318 316 315 315 314 314 318 319 315 315 319 319 319 321 316 311 310 311 313 313 312 312 311 313 313 313 315 314 315 321 318 315 314 311 315 317 314 316 314 307 305 302 301 301 300 301 300 300 300 300 300 301 301 302
315 315 314 314 315 316 316 317 317 316 316 319 321 321 321 321 321 322 320 319 320 320 319 320 320 320 321 320 319 320 318 319 319 319 318 316 315 314 313 314 316 318 316 316 318 318 321 320 312 309 312 313 313 313 313 313 314 316 315 313 315 315 315 319 317 315 317 315 313 313 316 322 317 311 309 304 302 302 300 300 300 299 299 300 301 301 302 302
315 315 315 315 316 317 318 319 319 318 318 321 322 322 322 322 321 321 320 320 322 320 318 319 319 319 320 319 319 319 318 319 319 319 318 317 316 315 313 313 315 318 317 315 314 316 317 314 310 313 314 313 313 315 315 315 316 318 318 315 314 316 316 316 315 314 319 321 315 311 320 330 323 315 311 306 305 303 300 299 299 299 299 300 301 301 301 302
315 315 315 316 318 319 320 320 320 320 321 322 322 322 322 322 320 320 320 323 325 321 318 319 319 319 318 318 317 317 319 319 317 318 318 316 316 315 315 313 313 317 316 314 314 315 316 311 311 315 315 314 314 315 316 315 315 318 319 317 314 314 314 315 315 316 321 323 314 309 317 327 327 322 313 306 307 304 301 300 299 299 299 299 300 300 301 302
315 315 315 317 319 320 320 320 320 321 322 322 322 322 322 320 320 318 319 325 325 320 319 318 317 318 316 315 316 317 322 319 314 316 315 315 315 314 317 316 313 314 311 312 317 318 316 313 313 314 315 316 315 316 316 314 317 321 318 316 317 315 316 317 316 317 321 320 316 315 315 317 323 322 310 306 308 305 302 301 299 299 299 299 299 300 301 301
314 315 316 317 320 321 320 320 321 322 322 322 322 322 321 320 319 318 322 329 326 318 318 316 314 315 314 314 315 315 317 315 315 315 312 313 314 312 317 317 315 316 310 313 323 318 313 315 316 315 315 315 316 318 317 313 318 321 314 314 317 316 318 319 318 318 316 314 320 322 316 315 323 320 307 305 310 308 305 303 300 299 298 299 299 300 300 301
314 315 316 318 320 321 320 321 321 322 323 322 322 322 321 320 319 318 323 328 324 317 316 315 313 313 313 314 314 312 310 311 313 314 311 312 313 312 315 314 313 315 310 312 322 318 311 311 313 316 318 317 318 317 313 314 317 313 309 313 315 315 317 318 319 320 314 314 322 323 317 317 325 323 311 307 311 313 309 304 301 299 298 299 299 299 300 301
314 315 317 319 321 321 321 322 321 322 323 322 322 322 320 319 319 322 325 326 323 317 313 313 312 311 312 315 314 310 309 309 311 311 311 311 312 311 312 311 310 315 314 313 318 317 311 308 308 313 315 315 315 310 306 310 311 307 311 319 317 316 318 318 320 318 315 320 322 318 317 316 321 324 317 311 312 313 309 304 301 299 298 299 299 299 300 300
314 315 318 320 321 321 321 322 321 322 322 322 323 321 319 319 320 326 327 323 322 318 312 313 311 310 314 317 317 312 308 308 309 311 312 311 311 311 311 311 312 318 320 317 319 316 312 312 311 311 310 310 313 312 306 306 306 309 319 322 319 319 318 318 320 318 319 326 320 313 313 313 318 323 318 312 310 307 306 305 302 300 298 299 299 299 300 300
314 316 318 320 321 321 321 322 322 322 322 322 322 320 319 321 323 326 325 321 324 321 316 316 312 310 314 315 317 314 310 309 308 311 314 312 314 313 313 316 316 319 320 318 320 318 317 317 312 309 309 310 318 319 311 308 309 313 320 320 320 322 319 320 322 319 320 321 313 311 313 313 317 319 314 313 310 303 302 302 301 299 299 299 299 299 299 300
315 316 318 319 319 321 321 321 322 322 322 323 322 318 320 324 326 325 322 322 325 319 316 318 314 313 314 313 315 313 311 312 309 310 312 311 314 314 314 315 314 317 320 317 318 318 320 320 312 312 312 310 316 319 316 317 313 314 318 320 322 322 322 326 323 317 319 317 310 309 312 314 318 315 310 309 306 300 299 301 301 300 300 300 299 299 299 300
315 316 318 319 319 321 321 322 322 322 322 323 321 318 320 325 327 325 323 323 323 317 316 317 314 313 314 314 316 313 312 314 310 310 311 311 314 315 315 313 310 317 321 317 317 319 323 324 316 315 314 311 313 315 319 324 316 313 317 318 320 323 325 327 324 322 322 319 312 309 312 320 321 312 304 301 300 297 299 301 301 300 300 300 299 299 299 300
316 316 317 318 320 321 321 322 322 322 323 322 320 320 322 325 325 325 323 322 322 318 316 315 314 313 314 315 316 314 313 314 311 311 313 313 316 318 319 316 312 317 321 318 319 317 318 323 318 310 308 309 312 310 312 320 318 312 312 315 317 321 321 319 318 318 318 318 316 313 316 320 315 306 300 299 298 297 299 300 300 299 299 299 299 299 299 300
318 317 317 317 319 320 321 321 321 321 322 321 321 322 322 323 323 323 321 319 320 317 315 317 317 316 316 316 316 313 312 315 313 312 312 313 315 316 318 318 312 313 317 319 321 318 317 321 316 308 307 308 309 308 307 313 318 313 311 317 317 313 315 318 315 311 312 317 318 315 317 317 311 306 302 300 300 299 298 298 298 298 298 298 299 299 299 300
319 319 318 317 318 319 319 320 320 321 320 320 322 322 319 319 318 317 317 316 317 317 317 320 319 317 317 317 318 317 315 315 314 312 314 315 315 314 316 317 311 310 314 316 319 320 319 321 315 310 313 308 304 306 306 306 312 316 316 317 313 310 314 318 318 316 316 318 318 315 317 317 316 313 305 301 302 301 299 298 297 297 298 298 299 299 300 300
320 319 319 318 318 318 319 320 319 320 319 319 323 322 318 318 314 313 314 314 316 319 321 322 320 318 319 319 318 317 316 316 314 314 316 316 315 315 316 317 311 308 310 310 314 317 317 320 317 309 312 311 306 310 312 307 307 313 314 312 311 316 319 316 317 321 319 318 320 317 315 315 317 315 311 308 306 303 301 299 298 297 297 298 299 300 299 300
319 317 316 317 318 318 318 318 317 317 317 318 322 320 317 317 314 312 313 313 315 321 322 320 318 317 318 319 319 317 316 317 315 315 316 316 315 313 312 315 313 308 308 309 315 317 314 317 319 311 309 310 310 314 318 314 308 307 309 309 311 316 320 318 316 318 319 318 320 318 315 316 317 316 318 316 307 302 301 300 299 298 297 299 300 300 300 300
317 314 313 315 317 317 317 316 314 315 315 315 317 315 314 315 313 311 313 313 315 317 319 318 318 318 317 317 317 316 317 318 315 315 316 315 315 313 311 314 315 310 307 308 313 317 315 314 318 316 310 311 314 316 317 318 314 311 313 313 313 312 315 316 314 315 319 320 320 318 316 319 318 312 315 315 306 301 301 300 299 298 298 300 300 300 300 300
314 313 311 312 314 315 315 314 312 312 312 311 312 312 312 313 312 311 312 313 314 314 315 316 316 317 317 316 316 315 316 319 316 316 317 315 315 315 312 312 313 311 310 310 314 318 316 315 319 320 316 316 319 314 309 312 314 315 316 316 316 315 315 316 315 314 316 318 319 318 316 319 315 307 308 309 304 300 300 299 299 298 299 300 300 301 301 301
313 312 311 310 311 313 313 311 309 309 309 309 310 311 312 312 312 312 312 312 313 313 313 315 315 316 316 315 316 316 316 318 317 316 317 316 316 315 312 309 309 310 313 315 316 314 312 315 319 320 319 318 315 307 302 305 309 312 314 315 316 316 316 318 317 316 316 315 316 317 316 316 310 303 304 304 301 300 299 299 299 299 299 300 300 301 301 301
310 309 309 309 310 311 311 309 307 307 307 308 310 310 311 311 311 311 312 312 312 312 313 314 313 313 314 314 314 315 315 316 317 317 317 317 316 312 308 309 309 309 313 317 316 311 311 315 318 318 318 315 311 307 304 305 309 312 312 313 314 316 316 316 315 316 317 316 315 315 316 315 308 301 299 300 299 300 300 300 299 299 300 300 301 301 301 301
308 307 307 309 310 310 310 310 308 308 307 308 309 309 310 310 310 311 312 312 312 313 313 313 312 312 313 313 313 314 315 314 315 316 316 317 314 308 306 309 310 310 312 315 315 312 313 317 318 318 318 315 313 313 311 310 311 314 314 313 312 314 314 312 312 313 315 316 315 314 315 315 311 303 300 300 299 299 299 299 300 300 300 301 301 301 301 301
307 306 306 307 309 309 309 308 308 308 308 308 309 309 309 309 309 310 311 311 311 312 312 312 311 311 313 313 313 314 314 313 314 314 314 315 312 307 305 307 309 309 310 311 311 311 314 317 317 317 317 315 315 317 316 316 314 313 314 313 311 312 313 313 313 313 313 315 315 313 314 314 312 308 305 303 301 300 300 299 300 300 301 301 302 302 302 302
305 306 305 305 306 308 308 308 307 307 308 308 309 308 308 309 309 309 310 310 310 311 311 311 311 311 313 313 313 315 314 313 314 314 314 315 313 307 305 306 307 307 308 308 308 312 315 316 316 317 316 315 315 316 314 314 314 314 314 313 312 311 310 312 313 313 313 313 313 313 313 313 313 310 308 305 303 303 301 299 300 301 301 302 302 302 302 302
304 305 305 304 305 306 307 308 307 307 307 308 309 308 308 308 308 308 309 309 310 310 310 311 311 311 313 313 314 314 315 314 313 313 314 316 313 307 304 305 305 306 307 307 308 312 316 315 314 316 315 313 313 314 312 311 312 313 313 312 312 310 309 311 312 312 313 312 312 312 311 311 312 310 310 309 307 305 301 299 300 301 302 303 302 302 301 301
303 304 304 305 306 306 306 308 308 307 306 308 308 308 308 308 308 308 309 308 309 310 310 310 312 312 312 314 314 314 314 314 313 313 314 314 312 309 307 306 305 304 306 306 306 310 316 316 313 313 314 312 311 310 311 311 310 310 311 311 311 309 308 310 310 310 311 311 310 310 310 310 309 308 311 311 307 303 301 300 300 301 302 302 301 301 300 299
301 302 303 305 306 305 306 307 308 307 307 307 307 307 308 308 308 307 308 309 309 309 309 310 311 312 312 313 313 313 313 313 313 313 314 313 312 311 312 311 306 303 305 307 305 306 312 315 311 310 312 312 308 306 307 309 309 309 310 309 309 307 306 308 308 307 307 309 309 308 307 307 306 306 309 307 303 302 302 301 302 301 301 301 300 300 299 299
301 302 303 304 303 303 305 307 308 308 308 307 307 307 306 307 307 306 307 309 309 309 309 309 310 312 312 312 312 312 312 312 313 313 313 314 312 310 312 314 309 304 304 307 307 305 308 311 309 308 311 311 306 303 304 305 306 308 308 307 305 304 304 305 305 305 305 306 306 306 305 306 304 303 303 303 302 302 302 302 302 301 300 300 300 299 299 299
301 301 302 304 303 303 305 307 307 307 308 307 307 307 306 306 306 306 307 307 308 309 310 309 310 311 311 311 311 311 310 311 312 311 311 312 311 309 310 311 309 308 307 306 307 307 307 308 306 307 311 309 304 302 304 303 303 305 306 305 303 303 304 304 304 305 305 305 306 305 305 305 303 300 299 300 300 299 299 300 301 301 300 299 299 298 298 298
301 301 301 303 305 304 304 306 307 307 307 307 306 306 306 306 305 306 307 306 306 308 309 308 309 310 310 310 311 310 308 308 309 308 307 307 307 306 307 307 306 309 309 306 306 307 306 307 307 307 310 307 301 301 302 302 304 306 306 305 304 303 303 303 303 303 303 304 305 305 304 304 301 298 299 299 297 295 296 298 299 299 298 298 298 298 298 298
Wind_Speed
5 5 5 5 5 4 4 4 5 4 4 4 4 4 4 4 4 4 4 4 4 4 4 5 5 6 7 8 9 9 10 11 12 14 15 16 14 8 3 3 2 1 3 4 3 3 4 4 4 3 3 2 3 2 2 3 3 3 3 3 1 2 3 5 6 5 3 3 6 8 11 5 7 11 12 12 11 12 14 17 16 14 12 9 11 14 17 18
7 7 7 6 6 6 6 6 6 6 6 5 5 5 5 5 5 5 5 5 6 6 6 6 7 7 8 9 9 10 11 13 14 15 14 11 5 2 6 5 1 4 5 5 4 5 5 4 4 3 2 1 2 2 2 2 4 3 3 2 2 5 5 4 6 6 3 4 9 11 10 6 7 10 12 9 10 13 13 17 16 12 13 14 16 19 19 17
9 9 9 8 8 8 7 7 7 7 7 7 7 7 7 7 7 7 7 7 7 7 7 7 8 8 9 9 10 11 12 15 15 10 3 2 7 8 6 3 4 6 6 6 5 6 5 4 4 4 2 1 2 2 2 2 2 2 3 1 5 6 4 5 5 6 6 9 10 11 10 10 12 12 9 7 11 13 9 13 12 10 18 22 21 19 17 11
11 11 11 10 9 9 9 9 9 9 8 8 9 8 9 9 8 8 8 8 8 8 8 8 9 9 9 10 11 12 14 15 9 1 7 9 8 5 1 3 6 9 8 6 5 5 5 4 4 4 2 1 2 2 1 2 1 1 3 3 5 3 1 6 6 7 8 8 8 9 10 13 15 13 10 8 9 10 12 13 9 11 21 24 19 15 12 8
13 13 12 12 11 11 10 10 10 10 10 10 10 10 10 10 9 9 9 9 9 9 10 10 10 10 10 11 11 12 12 8 1 7 8 6 4 3 5 6 8 10 9 6 4 4 5 5 4 2 1 1 2 2 1 0 2 2 3 5 4 3 2 8 8 8 8 7 8 9 9 12 14 14 13 10 5 11 19 18 14 18 21 19 14 11 11 11
14 14 14 13 13 12 12 11 11 11 11 11 11 11 11 11 11 10 11 11 11 11 11 11 11 11 11 12 12 13 8 2 2 3 6 7 7 8 9 10 10 11 9 5 3 4 4 5 4 1 1 2 0 1 1 2 4 2 4 4 4 4 5 11 12 11 10 9 9 9 10 13 13 15 17 15 16 22 27 22 19 19 14 9 7 8 10 12
16 16 15 15 14 14 13 13 13 12 12 13 13 12 12 12 11 12 12 12 12 12 12 12 12 12 12 13 13 13 9 9 10 8 10 11 12 12 13 14 12 11 7 3 3 4 4 5 4 2 2 2 1 2 0 2 4 3 3 4 4 6 8 12 13 14 15 13 15 13 12 15 12 11 13 18 24 25 21 14 11 10 7 4 5 8 10 12
17 17 16 15 15 15 14 14 14 13 14 14 13 13 13 13 13 13 13 13 13 13 13 13 13 13 13 13 13 11 12 15 13 12 13 14 15 16 16 15 13 11 7 4 3 3 4 5 6 4 1 1 2 2 1 1 2 4 4 4 4 7 10 14 17 19 18 16 17 13 12 18 16 11 12 20 23 16 9 7 7 7 7 6 8 11 10 10
18 18 17 17 16 15 15 15 15 15 15 14 14 14 13 13 13 13 13 13 14 13 14 14 13 14 13 14 12 9 13 13 10 9 10 11 14 14 15 14 12 10 7 5 3 3 4 4 6 7 4 2 3 2 2 1 2 4 4 5 6 11 14 16 18 19 17 15 14 9 11 16 11 6 11 14 11 7 7 7 8 8 8 9 12 14 13 12
19 19 18 18 17 16 16 16 16 15 15 15 14 14 14 14 14 14 14 13 14 14 14 14 14 14 13 14 9 6 11 10 7 8 7 8 9 9 10 10 10 9 8 7 5 4 4 5 6 6 5 3 3 3 3 3 2 1 2 7 9 13 16 15 18 20 17 14 12 8 9 11 3 0 6 4 4 5 7 8 9 9 8 8 9 11 14 14
20 19 19 19 18 17 17 16 16 16 15 15 15 14 14 14 14 14 14 14 14 14 14 14 15 14 14 14 10 9 11 10 7 8 7 8 8 8 9 9 10 10 9 8 7 5 5 7 6 5 5 3 3 3 4 3 2 3 5 8 10 12 15 15 16 16 10 6 6 5 6 7 0 2 7 3 6 8 9 10 10 9 7 5 6 8 10 12
20 20 20 19 18 18 17 17 16 16 16 15 15 15 15 15 15 14 14 14 14 14 14 14 14 14 13 14 17 17 16 14 12 11 11 12 12 12 11 11 11 10 10 9 8 8 7 8 9 7 5 4 3 0 2 2 2 4 5 5 9 10 11 11 7 4 1 1 3 1 3 6 1 7 10 5 8 10 11 11 9 7 5 4 4 6 7 8
20 20 20 19 18 18 17 17 16 16 16 16 15 15 15 15 15 15 15 14 14 14 14 14 13 14 12 13 17 17 15 15 15 15 15 14 13 11 11 11 11 11 10 10 10 10 9 9 10 9 6 4 3 1 1 1 2 4 3 2 5 8 7 5 1 2 2 2 2 2 3 7 6 12 8 9 11 14 15 12 9 7 5 4 3 4 5 6
19 20 20 18 18 18 17 17 17 16 16 16 16 16 15 15 15 15 15 14 14 13 13 13 12 12 11 13 16 16 15 15 14 13 13 13 12 10 11 11 11 11 11 11 11 9 8 7 9 9 6 5 3 2 1 4 3 2 2 2 3 2 5 6 2 1 4 2 4 5 2 6 10 10 6 11 13 18 17 12 9 6 4 4 2 3 4 5
19 20 19 18 18 18 17 17 17 16 16 16 16 16 16 15 15 15 14 14 14 12 12 11 11 10 10 13 15 14 15 15 15 14 13 13 12 11 11 11 11 12 11 10 7 6 5 6 8 6 4 4 3 2 2 4 3 2 1 3 3 2 5 10 6 2 1 0 4 5 2 6 10 8 6 12 16 17 13 9 7 4 4 4 4 4 4 5
19 19 18 18 18 18 17 17 17 16 16 16 16 16 16 15 15 14 14 13 12 11 11 10 11 9 7 10 12 12 13 13 13 13 13 13 13 11 10 10 9 9 9 7 5 5 6 6 5 3 2 3 3 3 3 4 4 3 0 3 3 2 3 7 5 1 2 1 2 2 2 4 7 9 8 15 18 13 7 6 6 5 6 5 5 6 5 5
19 18 18 18 18 17 17 16 16 16 16 16 16 15 15 14 14 13 13 12 11 11 10 8 8 8 9 11 12 12 12 11 11 10 11 11 11 10 9 8 8 8 7 6 5 6 7 5 4 2 1 1 3 5 3 3 4 3 1 2 4 3 2 4 4 4 5 4 2 2 2 6 9 15 16 18 16 9 8 8 8 8 7 7 7 6 6 6
19 19 18 18 18 17 17 17 17 16 16 16 15 14 13 12 12 12 12 12 11 8 8 10 6 3 8 13 12 10 9 10 11 10 9 9 9 9 8 7 7 8 6 5 5 6 6 3 2 1 2 2 2 5 3 5 5 3 2 2 3 3 3 4 5 3 5 6 4 4 4 8 11 12 12 17 14 9 11 11 10 10 9 9 9 8 8 8
19 19 19 19 18 18 17 17 17 17 16 15 14 12 12 11 10 12 13 12 11 6 4 9 11 4 3 6 8 9 8 9 10 9 9 9 9 9 8 7 7 8 7 4 3 5 5 3 3 1 1 3 5 6 8 9 7 6 5 4 4 4 4 5 6 4 2 5 5 6 6 8 10 8 10 14 11 14 13 11 11 11 11 11 10 10 9 9
20 20 20 19 19 18 18 17 17 17 16 14 13 11 10 8 5 7 12 16 18 16 12 11 13 12 8 5 4 6 8 9 9 9 8 8 10 10 9 8 7 6 4 3 3 2 4 3 2 4 6 8 8 10 10 6 4 4 3 3 4 5 5 6 5 4 1 1 6 7 5 7 8 5 8 10 10 14 13 11 13 12 12 13 12 12 11 10
21 20 21 20 19 18 18 17 17 17 16 14 14 11 8 7 4 3 6 12 17 20 20 19 17 17 16 11 6 6 8 8 9 10 9 9 11 9 8 7 6 3 1 3 3 2 4 4 5 9 10 8 7 9 8 3 2 2 2 3 4 4 6 6 4 4 0 2 5 4 4 9 6 3 8 10 10 10 10 10 11 11 13 14 14 14 12 12
23 22 21 21 20 18 18 18 17 17 16 15 15 13 10 8 8 7 6 8 12 16 18 21 22 24 23 19 15 13 10 8 10 12 11 12 14 10 8 7 4 3 1 3 3 1 1 4 9 13 8 2 2 3 4 4 4 3 2 2 4 3 4 6 4 5 2 3 4 4 3 9 4 4 7 11 10 9 10 10 10 11 13 14 15 15 14 14
24 23 23 22 20 19 18 18 18 18 18 16 16 15 13 10 9 9 8 7 11 16 18 20 23 26 26 24 22 20 16 12 12 14 15 15 16 13 9 8 4 3 2 3 5 3 3 5 11 11 4 3 2 3 6 3 3 3 3 3 5 2 0 4 4 5 3 1 2 2 3 7 2 4 6 9 10 11 13 12 12 12 13 14 15 15 17 19
24 24 24 23 21 20 18 18 19 19 18 16 15 14 13 11 8 8 7 5 7 10 16 20 21 24 25 23 20 19 19 17 13 12 17 19 17 11 9 8 5 3 4 7 8 6 7 7 4 3 5 6 5 2 6 4 2 3 5 6 5 4 6 6 3 4 3 3 1 1 4 5 2 1 2 5 8 10 11 11 12 12 12 14 15 17 19 21
24 25 25 23 21 18 17 18 20 19 17 16 15 13 11 9 7 5 4 3 5 6 9 15 16 18 21 19 18 16 13 14 15 12 14 20 19 10 6 8 6 4 6 6 5 5 8 8 3 3 3 5 6 5 5 6 3 4 5 10 10 8 8 6 2 4 3 4 3 2 2 5 4 2 2 1 4 5 7 9 10 9 11 13 15 17 19 21
25 25 25 23 20 17 16 17 19 18 16 16 14 13 11 8 5 3 1 2 4 4 4 8 9 9 12 13 14 12 4 7 13 14 14 19 20 12 5 5 4 3 6 5 2 3 4 4 3 5 4 6 5 5 5 7 4 3 5 9 10 8 6 4 2 2 1 2 2 2 1 4 5 3 3 2 3 4 4 6 7 7 9 11 14 16 18 21
25 25 25 24 21 19 17 15 17 18 15 15 14 12 10 9 6 2 2 3 5 4 6 7 7 7 8 9 13 12 2 3 8 12 16 18 18 13 6 4 3 2 5 5 1 3 2 1 2 3 4 5 4 4 6 8 6 3 4 4 6 7 7 6 5 4 3 2 3 3 2 3 4 4 3 4 4 3 2 3 3 5 8 11 13 16 18 19
25 26 26 25 23 23 21 16 15 17 16 13 14 13 11 10 8 3 3 2 3 5 5 5 7 7 8 12 16 9 2 4 5 6 14 17 15 10 5 6 6 4 3 6 3 3 2 1 2 5 4 4 5 4 7 10 5 5 3 5 6 6 6 5 6 4 1 1 3 4 1 2 5 4 1 3 2 0 2 3 3 5 9 11 14 15 17 19
26 27 26 26 25 23 22 18 14 16 17 13 12 14 13 12 8 4 3 3 2 4 3 6 8 6 9 13 11 4 3 3 2 5 12 13 12 6 2 6 7 5 2 3 4 3 1 1 3 6 4 4 4 2 6 9 3 4 5 6 5 5 4 4 4 3 2 1 4 5 3 2 5 4 1 1 3 4 5 4 5 8 10 12 14 16 17 18
27 28 28 26 26 25 23 22 19 17 17 14 13 15 15 12 6 3 3 4 1 3 3 6 6 5 9 9 3 1 2 1 3 8 8 7 8 4 4 5 5 5 2 3 1 3 0 1 2 3 3 5 4 2 2 3 2 6 6 5 6 5 4 3 2 3 2 2 5 5 5 4 3 5 3 3 3 5 6 4 5 8 12 14 15 16 17 18
28 30 29 28 30 29 26 26 25 20 18 16 15 17 16 7 3 4 7 2 2 2 4 4 3 5 9 6 2 2 2 1 4 8 5 3 4 3 5 4 3 4 3 4 3 4 3 1 2 2 4 5 6 5 3 3 4 5 3 4 3 3 3 4 4 3 1 5 5 3 2 4 4 5 3 4 3 4 6 7 8 11 15 17 16 17 18 17
29 31 31 31 32 31 28 26 24 23 20 16 18 20 13 3 2 7 5 2 1 3 4 3 2 4 6 3 3 4 3 1 3 4 3 3 3 3 3 4 3 2 2 3 2 4 3 4 2 1 4 5 5 4 3 4 4 4 3 5 3 3 3 2 3 0 3 5 3 2 1 3 6 5 3 3 3 3 4 6 12 18 20 20 19 18 18 17
31 31 31 32 31 31 30 25 22 24 22 19 21 18 8 3 8 10 7 2 2 3 4 4 2 4 7 4 2 3 3 2 4 3 2 3 3 3 3 2 5 2 0 3 2 1 3 5 1 2 2 5 7 4 2 1 2 4 4 4 3 1 0 3 3 2 4 3 2 2 0 1 5 3 2 4 5 6 7 8 16 24 25 23 21 19 18 17
31 30 31 32 31 31 31 26 24 24 24 25 21 10 4 7 6 6 9 6 1 1 3 4 5 5 6 4 3 4 3 2 4 4 2 3 3 3 3 3 4 3 3 3 2 3 1 4 2 3 1 3 5 4 5 5 4 4 4 5 4 4 4 3 3 3 4 3 2 2 0 3 3 1 2 5 5 5 4 9 18 23 23 22 20 19 18 17
30 31 33 33 33 34 32 31 28 24 28 29 17 6 8 10 3 3 8 5 1 2 2 3 6 6 3 2 2 3 4 3 4 5 2 3 4 4 4 5 5 4 4 3 2 2 2 4 4 2 0 3 3 2 4 6 3 2 3 4 2 4 4 2 3 4 3 2 3 2 2 3 4 1 2 3 1 2 5 13 19 21 20 20 20 20 19 18
31 32 34 35 36 36 34 34 31 29 34 26 9 6 10 6 2 2 2 1 3 6 5 3 3 4 3 2 1 4 3 1 4 4 2 3 4 4 4 4 6 7 5 4 3 2 2 4 4 2 1 2 2 2 3 3 2 1 2 3 4 4 5 2 2 1 3 1 3 2 2 4 0 1 3 3 4 3 5 12 18 20 19 20 21 21 20 19
33 35 36 37 38 36 36 36 31 32 35 21 6 8 6 1 3 2 3 2 1 5 8 4 2 4 5 3 3 4 2 2 3 3 3 3 3 5 4 3 6 11 8 4 2 3 4 2 5 1 1 1 2 3 5 4 3 4 3 4 3 2 3 3 1 3 3 3 4 1 3 4 2 1 3 2 2 2 5 8 12 16 17 20 22 22 22 20
35 36 36 37 39 37 35 35 33 34 29 14 9 10 4 2 4 2 3 2 2 2 4 4 3 2 4 4 3 4 4 4 4 3 4 3 2 4 5 3 5 8 8 4 1 1 4 1 5 1 2 2 2 4 4 5 4 4 3 2 2 2 1 2 1 2 1 3 4 2 2 3 4 4 2 3 7 8 7 7 9 14 19 22 24 24 23 21
33 29 25 30 35 33 30 28 32 33 19 6 9 9 2 1 3 2 2 2 2 2 2 1 1 2 2 4 3 2 3 4 5 3 3 2 2 3 4 3 3 3 5 6 4 1 3 1 4 2 1 2 3 2 2 1 2 3 2 1 2 2 3 2 2 2 2 2 4 4 3 3 5 6 8 10 12 12 11 10 11 16 23 27 28 27 25 23
30 17 11 23 31 28 24 21 22 19 7 2 5 3 0 1 1 1 1 1 2 2 1 0 2 2 2 2 1 1 2 2 5 3 1 2 2 3 2 2 4 2 2 4 3 1 3 1 3 3 3 1 1 1 5 6 3 2 2 1 0 1 1 1 1 2 3 2 2 4 6 5 4 3 7 10 10 13 16 15 14 20 28 31 31 29 26 24
27 10 5 19 27 26 22 14 8 5 2 1 1 1 1 1 1 2 3 3 3 4 3 2 3 2 2 2 0 1 2 2 4 3 2 2 2 2 2 2 5 5 3 4 2 2 1 2 3 1 2 2 4 4 3 5 5 5 4 4 4 3 3 1 3 1 2 2 3 3 7 7 3 1 2 4 5 11 17 16 16 25 33 33 31 28 25 22
18 6 6 17 22 24 19 7 2 2 2 2 2 2 2 0 1 2 4 5 3 4 5 3 2 2 2 2 2 2 3 2 3 3 2 3 4 3 2 2 5 7 5 3 3 2 2 3 3 1 3 5 5 3 2 3 3 4 3 3 3 4 4 4 5 3 1 1 1 2 4 6 2 1 2 3 5 11 16 16 17 25 30 30 29 27 24 21
10 7 8 15 19 21 14 3 1 3 1 2 2 2 1 2 2 2 3 3 3 2 2 1 1 2 2 2 2 2 2 2 3 4 3 3 3 2 2 3 5 5 4 2 2 2 2 2 2 2 3 2 4 4 2 2 2 1 1 2 3 3 3 4 5 3 2 3 1 0 5 5 2 2 3 2 5 10 15 19 20 22 25 26 27 26 23 22
12 9 7 12 16 16 9 1 2 4 2 2 3 1 1 1 1 1 2 2 2 3 2 1 2 3 3 2 2 3 3 2 3 3 3 3 2 1 2 4 5 3 2 2 3 5 3 1 2 0 4 4 4 3 3 4 1 2 2 1 2 3 4 2 1 2 1 6 6 4 8 6 2 3 4 3 3 7 12 19 21 22 24 26 26 25 23 22
11 6 4 8 13 13 7 1 2 3 3 3 2 3 2 1 4 6 5 4 5 5 3 1 2 3 3 2 2 3 3 2 3 1 1 1 0 1 2 1 4 3 1 2 5 6 5 2 3 4 5 7 5 3 2 2 1 2 2 3 4 5 6 3 1 2 4 4 5 7 8 4 3 2 4 4 4 5 9 17 20 22 24 26 25 24 22 20
8 2 2 5 9 10 7 3 3 3 3 3 1 2 5 2 2 7 8 6 7 6 4 3 2 2 2 2 2 3 3 3 3 1 1 2 1 1 2 1 1 2 2 3 5 5 3 1 3 6 7 8 6 5 4 3 3 3 4 5 6 5 6 5 3 4 4 0 3 8 3 2 6 4 2 2 3 5 8 14 20 22 22 21 21 20 18 16
5 2 4 4 5 6 6 5 6 3 2 5 3 1 7 6 1 3 6 5 6 8 6 3 4 4 2 3 4 4 5 5 4 2 2 2 1 2 2 2 2 2 3 4 4 4 3 2 4 5 7 6 3 4 4 4 4 6 6 6 7 6 7 6 5 6 4 1 9 8 4 3 12 7 4 5 5 6 8 14 22 24 22 18 17 15 15 14
3 2 7 7 4 3 4 6 9 6 3 5 3 1 4 6 4 4 4 2 3 7 6 3 5 8 6 6 5 3 4 4 4 3 2 1 1 1 1 1 1 2 2 2 2 3 3 4 4 4 6 5 2 1 3 4 4 4 6 9 9 7 9 10 10 8 7 7 13 7 6 8 10 3 5 8 9 10 12 17 22 21 18 15 13 13 14 16
5 2 6 9 4 3 6 9 12 11 7 5 3 2 4 6 6 4 3 2 1 5 8 5 5 8 8 7 6 5 5 5 4 3 3 2 2 2 1 1 1 1 2 2 1 2 3 2 1 3 4 5 0 1 1 3 4 5 8 11 8 7 9 10 9 7 7 10 12 5 3 10 8 4 6 6 5 8 11 14 18 17 15 13 13 16 19 19
9 5 6 7 3 2 6 9 11 9 7 6 6 5 4 6 7 4 3 5 4 3 7 9 6 6 8 8 8 9 8 7 5 5 5 4 2 2 3 3 2 1 1 2 1 0 2 1 1 3 2 5 0 3 2 1 3 6 12 12 5 6 6 6 6 5 4 8 9 6 9 13 7 5 7 7 6 8 11 15 19 18 16 16 19 22 22 19
15 12 9 7 4 4 6 6 7 5 4 7 7 5 5 7 8 7 3 7 10 5 6 11 9 5 5 7 10 12 9 8 8 7 8 8 5 5 5 4 6 5 1 2 1 1 3 1 2 3 2 4 1 4 2 1 0 8 16 13 6 6 6 6 5 5 7 8 10 8 10 11 4 5 6 9 11 13 16 18 20 21 22 22 23 21 20 18
19 15 13 8 4 5 7 4 5 6 5 7 8 6 6 8 9 10 5 6 10 11 10 12 10 5 4 7 10 12 10 7 6 4 6 6 5 5 5 6 9 8 5 4 2 1 4 3 2 3 4 2 1 3 4 3 1 9 13 8 9 10 8 5 5 7 9 9 7 8 10 8 2 5 4 7 9 12 15 17 19 21 21 20 20 20 18 17
Wind_Direction
253 254 251 251 248 247 245 245 243 244 242 241 241 236 236 234 232 236 237 243 246 255 264 273 285 292 299 300 303 305 306 310 309 309 309 305 301 293 252 195 191 285 304 322 324 313 322 329 317 322 328 356 17 37 58 38 49 39 83 89 321 200 200 187 182 192 176 277 297 331 342 329 302 323 329 318 301 298 302 299 299 298 298 311 320 325 323 322
259 259 258 259 258 257 254 251 251 249 247 246 246 246 244 242 242 242 242 247 250 256 263 272 280 283 290 294 298 304 308 310 309 308 306 300 287 152 128 128 58 337 317 306 295 293 304 311 297 301 315 357 23 41 68 39 51 63 105 88 248 202 211 203 189 201 200 295 300 316 325 309 296 315 326 318 301 311 311 305 308 312 325 332 328 328 326 324
258 259 259 259 259 259 257 256 256 253 253 251 250 251 247 247 247 246 247 249 251 256 262 268 274 278 284 290 298 306 313 317 315 314 308 138 127 121 112 88 7 351 328 301 281 284 286 281 274 279 293 2 28 30 50 39 48 71 98 86 246 217 239 249 232 244 266 296 305 315 319 307 308 316 318 308 306 310 298 296 305 321 329 329 333 336 330 330
256 257 257 257 257 257 256 256 255 253 253 251 250 250 249 249 248 248 250 251 254 257 262 267 272 278 282 290 300 308 320 324 319 126 133 130 129 126 95 337 353 356 339 313 279 275 274 257 259 275 292 17 17 11 20 19 27 138 139 181 224 183 265 272 280 294 297 306 301 306 315 310 315 320 307 311 322 309 293 297 310 320 320 323 334 346 346 1
255 256 256 255 255 254 255 253 253 252 251 250 249 249 249 250 251 252 254 255 258 262 267 271 274 279 283 291 299 308 328 342 43 141 154 164 177 245 294 314 343 344 331 316 274 256 259 249 255 278 343 11 22 24 345 269 138 174 212 229 226 161 245 288 301 313 314 316 303 304 311 304 312 311 297 300 285 277 293 302 309 309 311 319 336 359 4 8
254 254 254 254 254 253 253 252 253 252 251 251 250 249 250 250 253 256 258 261 263 267 271 272 276 279 284 291 297 304 319 313 236 190 204 227 252 274 289 301 325 326 315 309 268 241 245 244 254 264 75 30 31 203 340 179 176 212 263 265 272 235 251 287 299 306 308 306 300 298 297 298 306 304 298 286 267 281 297 300 299 304 314 330 346 356 351 352
252 253 253 254 253 253 253 252 252 251 251 251 251 251 252 253 255 258 261 265 266 270 273 274 277 279 284 290 294 298 287 268 274 266 249 250 258 270 279 285 300 306 296 297 267 231 240 244 241 208 104 33 242 209 127 191 187 185 267 289 298 274 265 289 301 302 300 296 294 294 291 290 288 293 303 290 285 298 308 307 308 323 354 12 359 350 341 343
251 252 253 253 253 253 253 252 251 251 251 251 252 253 254 256 257 260 263 266 269 272 273 276 277 280 286 290 293 293 278 277 283 272 258 251 252 261 267 273 283 286 272 270 267 230 247 248 236 223 175 236 215 201 171 249 214 180 236 286 296 284 284 298 302 299 299 297 298 294 277 278 281 280 284 288 298 319 343 358 12 16 15 4 351 348 342 339
250 251 252 253 253 254 253 253 253 252 253 253 253 255 256 259 260 262 265 267 270 272 275 278 279 283 286 286 290 291 282 288 287 266 258 253 254 258 262 267 269 264 253 252 247 235 247 246 240 235 236 229 202 207 163 182 264 199 222 286 291 290 297 302 298 296 298 297 296 286 276 285 292 282 273 285 309 352 16 17 24 19 5 354 342 336 335 335
249 250 251 253 253 255 255 254 255 255 256 256 256 258 259 261 263 265 267 269 271 273 277 279 281 283 283 282 276 270 284 289 274 256 253 252 254 257 260 261 255 249 246 241 231 239 250 256 255 236 240 239 177 185 165 163 262 250 287 293 286 293 301 302 293 291 294 294 285 258 273 292 297 205 270 295 23 13 10 20 20 10 359 352 335 324 326 329
248 249 250 252 253 255 256 256 257 257 258 259 259 261 262 264 265 267 269 271 273 275 278 279 282 280 277 275 249 241 278 281 264 259 249 247 252 256 258 254 249 244 239 233 228 241 254 259 250 219 223 216 169 194 204 204 283 319 326 305 295 310 309 296 286 290 295 296 283 232 259 295 9 194 244 262 20 5 19 29 16 4 355 345 327 317 316 322
247 248 249 251 253 254 255 255 256 257 259 260 261 262 264 266 267 269 271 273 274 275 277 277 277 274 272 267 252 256 274 272 266 265 257 260 262 258 254 250 246 240 234 234 241 256 264 253 234 219 215 185 164 195 208 212 316 319 350 322 307 337 325 294 282 298 340 278 297 190 282 308 272 226 249 317 4 1 21 29 17 8 0 346 322 314 313 322
246 247 248 249 250 252 253 253 254 255 257 258 260 262 263 266 267 270 270 271 272 272 273 271 270 269 265 260 262 268 273 268 266 264 262 264 264 257 246 241 238 233 235 244 258 264 260 244 227 223 218 189 180 183 198 33 353 306 8 22 321 349 327 298 95 68 12 291 238 117 289 290 264 248 277 3 5 357 13 28 23 15 7 354 331 318 326 336
244 245 246 246 247 248 249 250 251 253 254 257 258 260 263 265 267 268 268 268 268 266 265 264 264 265 257 258 268 270 266 265 261 257 258 258 257 250 239 234 234 237 247 257 263 259 246 230 218 216 214 210 195 165 309 4 16 311 353 37 358 353 282 297 348 315 345 306 189 138 229 266 274 280 349 21 358 355 7 23 21 16 20 7 5 357 357 7
240 242 243 242 243 244 245 246 248 250 252 254 257 261 263 265 266 265 264 262 261 260 259 259 261 261 260 264 267 267 263 261 257 253 252 252 248 241 235 235 239 246 251 252 246 228 209 196 198 197 192 199 175 123 2 351 11 18 334 313 334 178 266 307 321 231 209 322 139 134 223 269 276 284 32 18 349 353 7 25 32 36 47 35 34 41 40 45
239 239 239 239 238 240 241 242 245 247 250 254 257 260 261 261 260 258 257 256 256 256 255 258 258 253 262 271 265 262 261 255 253 250 243 242 240 236 237 239 240 241 237 228 212 191 179 172 177 174 160 171 139 93 45 359 338 0 172 248 267 205 270 315 333 29 150 116 77 111 241 275 284 289 342 3 355 1 28 53 61 62 60 58 52 55 61 64
239 238 237 237 237 238 239 241 244 247 250 253 255 256 256 255 254 253 251 250 252 252 253 255 255 254 257 262 261 259 257 247 242 236 230 231 233 233 232 226 222 220 212 199 193 181 178 174 168 176 97 85 100 92 62 322 286 313 6 224 247 216 223 292 313 1 53 82 29 14 245 254 279 291 321 359 6 20 70 78 73 72 68 69 67 65 62 58
236 236 236 236 237 238 239 242 244 247 250 251 252 252 249 249 249 250 249 248 246 250 258 242 226 273 261 248 249 254 251 234 225 220 220 221 219 220 216 212 211 202 182 174 184 176 179 168 131 140 21 33 111 118 160 231 215 213 207 210 254 239 225 260 271 320 29 31 344 325 278 267 277 287 332 9 19 52 82 85 79 78 75 74 74 70 64 59
233 233 233 233 234 235 237 240 242 245 247 246 245 243 243 247 250 251 248 242 230 220 247 222 200 193 244 242 244 244 237 217 210 214 218 214 208 203 194 189 185 176 157 149 179 165 161 116 92 157 247 208 189 170 199 216 194 196 206 190 213 237 246 244 249 266 15 9 307 275 266 270 277 291 351 14 43 73 79 83 77 75 76 75 75 71 68 66
233 232 232 232 232 233 234 236 240 242 241 239 235 232 237 238 246 258 245 237 235 232 237 233 219 222 238 272 256 222 215 206 207 217 218 209 203 193 179 168 160 164 152 150 184 143 144 164 175 209 220 209 204 202 211 217 178 178 203 209 212 225 260 264 266 286 83 37 275 262 264 270 273 303 356 13 57 64 59 68 67 68 74 73 75 72 70 69
234 233 232 232 231 232 233 234 236 237 236 231 225 221 222 213 209 266 252 248 251 246 245 248 246 243 247 255 245 220 216 214 222 229 225 210 196 185 180 167 144 171 231 136 130 93 145 189 221 226 224 210 203 209 222 244 193 186 205 244 257 227 255 268 270 304 69 175 263 294 307 282 284 356 8 28 57 48 45 62 61 67 74 75 78 77 77 80
235 232 230 230 229 229 230 231 233 234 230 224 221 219 219 219 228 257 279 278 269 258 250 247 247 248 248 245 241 236 228 228 235 228 219 202 192 192 184 162 149 189 187 112 105 49 196 222 236 235 228 170 145 168 192 226 222 228 197 225 268 242 282 292 294 337 23 171 263 334 310 279 309 43 26 42 64 60 64 77 75 79 80 80 84 84 90 94
234 229 226 225 223 223 224 226 227 230 228 223 223 223 226 235 245 263 278 283 277 265 252 245 243 245 245 243 242 238 230 233 240 228 220 204 192 195 181 156 158 160 140 174 178 181 220 239 239 234 202 162 224 119 127 173 218 220 191 194 251 236 357 283 291 343 11 130 264 342 298 278 319 67 43 55 78 78 76 84 84 86 85 85 90 93 96 97
230 224 222 220 218 218 218 220 223 226 227 222 223 224 229 240 248 269 274 273 282 264 250 246 243 243 243 242 240 235 229 231 237 230 219 204 187 185 187 171 153 151 190 202 196 204 235 251 239 173 152 184 221 178 142 166 240 243 210 205 232 223 213 228 283 335 341 12 17 53 323 296 295 68 61 69 79 73 72 81 81 83 91 96 101 100 98 98
224 220 218 215 213 211 212 220 223 225 225 221 222 220 222 232 237 259 279 289 287 264 249 242 237 240 238 236 234 225 223 231 234 230 213 202 191 178 178 179 166 196 207 185 193 235 257 259 211 126 132 167 193 219 186 172 217 278 229 210 217 222 224 230 345 6 3 357 351 38 335 293 320 348 179 128 54 54 58 69 73 83 99 107 107 103 102 102
223 218 214 211 206 201 207 222 224 222 223 222 220 212 212 212 209 238 328 11 280 239 202 210 211 222 221 221 214 199 213 246 227 219 205 199 200 187 162 169 161 207 187 148 171 237 258 269 193 174 177 160 181 241 220 169 157 282 248 208 210 212 213 212 153 107 136 260 315 51 165 257 316 324 201 164 70 53 44 55 71 94 107 114 112 109 108 105
222 215 211 208 199 196 205 217 221 217 215 218 214 202 199 186 167 167 60 349 271 190 148 171 173 179 195 190 174 166 199 218 184 198 194 190 197 191 182 175 136 186 168 130 182 241 190 39 67 156 166 162 188 242 217 162 138 243 251 165 171 184 192 193 162 165 212 241 328 7 139 226 291 283 218 150 105 53 40 63 77 112 125 127 122 117 114 111
220 213 210 205 197 201 207 210 215 212 209 213 206 193 182 173 169 138 88 304 260 137 130 161 158 168 174 166 163 156 129 136 133 186 186 182 189 186 198 201 169 171 162 144 206 262 139 126 183 159 143 180 209 223 185 160 157 244 215 122 138 156 163 155 137 164 223 49 305 301 133 232 266 272 294 144 147 251 197 192 185 157 151 143 134 126 121 119
217 211 209 203 199 206 210 209 210 207 207 206 194 186 173 163 163 103 86 240 205 111 125 153 151 158 148 153 169 162 99 111 99 168 171 176 185 175 185 198 161 138 121 142 208 256 96 170 196 148 142 206 219 253 178 170 198 201 133 94 77 76 84 92 112 125 70 61 246 239 184 210 272 280 274 178 232 226 200 206 203 179 167 155 143 136 130 126
215 211 206 202 203 206 207 208 207 203 202 196 187 179 167 158 142 114 208 233 163 104 122 147 160 158 137 138 177 219 126 90 102 137 147 164 174 144 118 151 128 117 54 4 264 255 294 125 186 152 176 186 149 64 127 154 143 137 112 61 47 37 37 39 57 93 78 273 249 232 200 183 264 280 219 184 221 190 168 179 201 192 180 167 154 145 139 134
214 211 206 203 207 206 205 207 206 203 195 188 184 171 162 152 101 183 216 224 60 121 119 137 176 148 142 140 164 175 115 59 130 138 132 127 148 125 110 125 101 85 14 334 297 305 326 256 243 209 182 141 103 64 49 62 96 113 86 69 69 346 9 22 355 44 138 252 264 269 221 164 217 263 227 211 231 184 172 177 182 191 187 174 162 153 147 141
217 212 207 208 210 207 208 210 207 205 194 181 181 174 160 151 222 214 220 67 94 199 150 165 196 152 151 123 134 164 123 122 167 142 135 129 150 173 156 160 154 79 342 255 259 339 298 243 257 162 184 158 115 71 40 32 60 87 93 99 91 326 346 342 315 327 229 246 264 278 188 177 232 245 215 226 249 254 254 214 182 181 182 175 166 159 154 149
219 214 212 215 215 212 211 210 205 203 195 182 182 176 152 207 220 211 208 187 206 196 132 132 121 130 142 126 171 177 119 166 187 151 137 118 144 215 249 198 167 125 78 197 199 358 300 296 321 126 211 194 159 139 163 209 108 141 151 132 129 134 337 283 270 268 272 264 275 284 195 228 268 261 199 239 271 283 280 236 194 181 175 171 167 163 159 155
220 216 216 218 219 217 214 213 207 201 196 188 181 167 168 223 222 178 187 206 225 103 99 115 108 109 138 155 214 182 135 204 173 138 121 109 129 218 248 230 187 120 99 142 185 169 190 304 238 173 213 190 181 177 163 145 141 174 159 133 144 155 171 232 224 218 260 285 295 292 205 194 219 213 223 247 276 293 258 201 189 181 174 170 169 168 166 162
222 219 217 218 220 218 216 217 214 207 202 194 179 166 202 217 235 149 186 197 166 120 70 91 115 115 162 210 259 204 192 220 159 126 140 158 166 192 196 206 194 150 124 158 222 153 159 261 259 261 16 141 174 201 126 110 128 198 127 114 166 183 165 194 202 176 182 294 294 239 226 222 185 161 305 293 0 59 148 166 173 177 177 175 176 174 172 169
226 223 221 221 221 220 221 220 217 215 209 198 181 202 209 212 196 186 208 141 158 155 121 90 98 117 186 215 239 228 214 166 152 144 176 191 195 199 200 212 192 178 163 158 198 156 126 269 290 348 43 87 111 182 115 114 178 153 122 179 222 183 133 127 260 66 87 265 270 196 239 286 300 3 344 17 55 78 139 159 167 175 178 181 183 180 177 176
228 225 224 225 222 221 224 226 226 221 209 196 200 219 208 202 175 187 317 339 152 144 137 160 188 151 181 193 197 205 175 127 157 164 191 205 209 193 202 236 187 188 193 163 203 200 140 264 303 50 134 355 60 116 72 58 118 121 177 216 214 146 102 102 252 346 37 249 271 218 221 258 235 262 337 29 110 173 182 172 171 178 184 189 189 184 181 180
229 222 220 223 224 223 224 227 226 213 201 195 221 218 196 185 178 94 4 339 0 71 131 179 201 149 171 182 188 181 167 176 173 168 182 200 233 181 167 197 180 194 207 159 140 234 126 243 300 352 168 298 8 101 69 24 66 116 177 182 112 153 164 86 168 241 247 251 284 292 236 237 209 202 214 205 198 192 190 186 185 190 193 194 192 188 186 184
222 215 210 213 218 217 209 206 204 197 191 202 220 215 198 175 180 88 43 7 355 51 103 174 123 55 137 154 154 157 161 173 166 171 181 166 214 191 156 169 170 209 217 163 155 219 113 152 279 285 231 287 14 81 162 258 32 68 104 77 59 160 171 149 152 174 194 250 288 293 279 259 232 195 179 194 196 181 179 189 197 199 196 194 192 189 189 188
202 197 197 196 195 191 183 179 186 189 190 211 199 200 331 167 138 72 86 31 24 58 59 353 65 77 123 102 90 138 106 142 159 171 212 166 182 208 199 167 140 155 194 141 140 115 81 122 240 289 312 241 175 203 186 184 162 108 133 173 249 151 138 208 234 128 136 179 252 279 279 267 252 196 182 197 194 179 183 188 192 196 195 195 193 189 189 189
179 168 179 183 176 171 169 167 175 178 165 201 170 126 202 214 77 83 102 124 96 64 73 88 72 90 125 101 193 174 106 132 167 174 223 202 187 202 213 158 146 151 115 95 139 178 121 140 174 264 326 191 226 248 193 183 171 157 177 195 186 160 122 199 261 242 116 180 193 234 275 274 264 231 211 209 194 191 194 189 186 193 195 195 193 189 190 192
168 142 160 175 170 167 164 155 115 113 127 195 173 151 167 62 77 78 67 81 72 51 57 60 70 115 140 175 198 167 147 164 182 186 203 206 205 201 173 127 153 154 127 120 200 194 124 118 132 217 219 214 253 290 142 176 158 142 175 187 160 145 134 177 236 241 155 234 166 122 275 279 295 321 282 249 215 202 201 196 191 195 197 196 194 192 195 199
147 112 147 165 166 167 163 139 114 152 193 207 159 143 128 78 64 38 47 65 56 59 73 50 174 183 217 215 178 164 186 190 182 186 200 205 207 211 151 139 150 142 121 145 193 147 107 108 130 279 296 311 325 349 45 62 81 129 231 154 146 162 153 181 213 184 161 230 210 46 264 267 324 349 322 273 211 193 194 197 196 198 199 198 197 198 202 206
118 105 133 156 162 170 172 159 167 180 210 169 144 154 125 106 129 112 119 160 154 131 130 170 196 207 227 186 165 199 207 205 205 200 195 190 176 120 120 149 165 162 149 190 174 164 179 146 119 242 313 324 334 348 353 354 7 214 245 224 172 139 108 107 149 113 211 223 200 229 255 252 281 352 24 54 131 165 189 197 197 197 198 200 201 203 207 211
117 97 112 156 172 180 183 153 130 165 175 148 153 178 148 97 210 197 187 190 187 165 155 233 217 198 199 148 151 206 205 217 236 227 122 169 202 73 84 152 193 195 202 179 161 159 172 179 140 167 234 248 242 221 225 266 248 202 221 226 211 172 151 151 138 178 230 217 188 229 253 267 292 348 49 63 111 152 191 197 199 201 201 203 207 209 212 216
135 112 108 159 188 200 212 203 148 126 156 162 136 182 182 190 217 197 194 209 216 193 188 232 210 168 199 167 159 212 226 221 218 193 122 188 251 350 33 36 181 183 148 140 149 139 127 208 193 188 222 235 223 215 199 152 152 204 223 212 202 193 178 150 123 201 217 195 240 238 230 303 280 257 122 118 168 186 202 199 200 205 205 205 208 210 214 222
136 170 161 155 190 215 238 222 181 134 131 172 165 165 192 197 213 194 192 204 216 204 207 228 184 183 208 163 169 221 221 210 206 190 168 182 227 339 15 58 93 145 150 138 146 122 100 237 220 203 237 241 186 201 202 157 186 217 225 225 214 188 162 160 205 220 162 149 262 249 147 219 263 252 191 206 206 205 217 207 203 204 205 204 205 209 220 236
153 176 177 174 173 195 220 204 183 173 156 174 182 105 179 190 189 193 192 198 218 200 204 236 201 204 204 165 172 216 195 200 218 194 164 160 161 48 17 15 73 133 144 119 117 115 125 236 221 175 241 253 134 167 203 180 223 237 229 237 230 193 170 187 221 216 163 210 258 255 154 212 253 240 189 214 209 208 216 211 208 211 214 217 217 229 248 259
169 147 183 190 184 182 192 176 169 179 183 173 191 194 176 187 192 187 154 122 252 212 203 222 216 205 205 182 183 211 193 185 217 207 167 162 175 148 144 251 243 113 106 88 53 96 133 230 199 138 247 268 356 43 165 189 236 262 246 242 228 191 186 201 222 212 189 229 260 278 223 245 250 191 196 229 219 218 225 220 222 228 230 235 248 264 274 277
184 177 178 183 178 161 173 159 157 180 192 184 210 216 179 188 197 188 150 167 192 211 204 219 219 191 199 198 199 223 217 188 206 214 170 165 205 184 191 208 164 106 68 99 54 12 162 201 76 108 247 279 293 76 61 200 227 254 256 249 202 157 188 213 231 222 211 247 265 272 267 269 262 177 194 240 247 241 242 235 237 245 252 263 273 277 279 276
197 192 177 171 174 163 165 156 151 169 193 197 211 196 178 211 201 179 199 209 203 194 191 210 217 192 195 204 210 228 223 192 209 213 181 188 206 187 197 195 153 139 134 158 162 168 178 202 48 97 207 263 179 130 130 69 331 264 263 251 183 165 201 207 213 208 206 232 250 254 259 267 266 139 179 233 234 232 239 240 245 256 265 271 274 273 271 266
200 201 192 178 177 174 171 154 152 177 203 204 204 189 192 213 187 168 201 234 209 207 207 205 200 178 192 211 218 229 225 206 225 223 188 205 210 181 197 193 167 159 162 166 156 119 166 165 116 149 202 242 44 147 151 109 301 266 264 232 184 202 222 216 228 226 212 214 228 239 250 257 198 133 177 238 226 223 238 244 247 254 259 262 263 261 260 259